Home > Weather > Iraq > Najaf > Past weeks

Flag for Iraq Weather past 2 weeks in Najaf, Iraq

54 °F

Rain. Mostly cloudy.

Feels Like: 52 °F
Forecast: 56 / 70 °F
Wind: 7 mph from Southeast

Location: Ilam

Current Time: Dec 2, 2015 at 3:26:44 AM

Latest Report: Dec 2, 2015 at 2:00 AM

Visibility: 2 mi

Pressure: 30.12 "Hg

Humidity: 94%

Dew point: 52 °F

Location of NajafLocation

Historic Weather in Najaf — Graph


Najaf temperature yesterday

Maximum temperature yesterday: 59 °F (at 1:30 PM)
Minimum temperature yesterday: 52 °F (at 11:00 AM)
Average temperature yesterday: 56 °F

Past Weeks' High & Low Weather Summary

High68 °F (Nov 25, 1:00 PM)100% (Nov 18, 1:00 AM)30.36 "Hg (Nov 18, 1:00 AM)
Low36 °F (Nov 21, 5:30 AM)9% (Nov 24, 2:00 PM)29.89 "Hg (Nov 18, 3:00 AM)
Average51 °F55%30.17 "Hg
* Reported Nov 17 2:00 AM — Dec 2 2:00 AM, Najaf, Weather by CustomWeather, © 2015

Note: Actual official high and low records may vary slightly from our data, if they occured in-between our weather recording intervals... More about our weather records


Najaf weather history for previous 24 hours

Time TempWeatherWind HumidityBarometerVisibility
2:00 AM
Wed, Dec 2
54 °FRain. Mostly cloudy.7 mph94%30.12 "Hg2 mi
1:00 AM54 °FLight rain. Mostly cloudy.5 mph100%30.15 "Hg4 mi
12:00 AM55 °FMostly cloudy.7 mph88%30.15 "HgN/A
11:00 PM
Tue, Dec 1
55 °FMostly cloudy.7 mph88%30.15 "HgN/A
10:00 PM55 °FMostly cloudy.9 mph82%30.15 "HgN/A
9:00 PM55 °FMostly cloudy.7 mph82%30.18 "HgN/A
8:00 PM54 °FMostly cloudy.9 mph88%30.18 "Hg5 mi
7:00 PM55 °FMostly cloudy.9 mph82%30.15 "Hg5 mi
6:00 PM55 °FMostly cloudy.9 mph77%30.15 "Hg5 mi
5:00 PM55 °FMore clouds than sun.9 mph72%30.15 "Hg5 mi
4:00 PM57 °FMore clouds than sun.12 mph67%30.12 "Hg5 mi
3:00 PM57 °FMore clouds than sun.9 mph63%30.12 "Hg5 mi
2:30 PM59 °FMore clouds than sun.9 mph59%30.12 "Hg5 mi
2:00 PM59 °FMore clouds than sun.12 mph59%30.09 "Hg5 mi
1:30 PM59 °FBroken clouds.14 mph63%30.12 "Hg5 mi
1:00 PM57 °FBroken clouds.14 mph63%30.12 "Hg5 mi
12:30 PM57 °FBroken clouds.14 mph67%30.12 "Hg5 mi
12:00 PM55 °FBroken clouds.14 mph67%30.15 "Hg5 mi
11:00 AM52 °FThunderstorms. More clouds than sun.9 mph88%30.18 "Hg5 mi
10:00 AM55 °FMore clouds than sun.14 mph55%30.18 "HgN/A
9:00 AM57 °FMore clouds than sun.12 mph44%30.15 "HgN/A
8:30 AM57 °FMore clouds than sun.12 mph44%30.15 "HgN/A
8:00 AM55 °FMore clouds than sun.9 mph44%30.15 "HgN/A
7:30 AM55 °FMore clouds than sun.12 mph41%30.15 "HgN/A
7:00 AM55 °FMostly cloudy.12 mph38%30.15 "HgN/A
6:30 AM55 °FMostly cloudy.12 mph36%30.15 "HgN/A
6:00 AM55 °FMostly cloudy.9 mph33%30.12 "HgN/A
5:30 AM55 °FThunderstorms. Mostly cloudy.14 mph33%30.12 "HgN/A
5:00 AM57 °FMostly cloudy.14 mph27%30.09 "HgN/A
4:00 AM57 °FThunderstorms. Mostly cloudy.12 mph27%30.09 "HgN/A
3:00 AM55 °FThunderstorms. Mostly cloudy.9 mph26%30.12 "HgN/A
Weather by CustomWeather, © 2015

See weather overviewHow to use our weather pages